�������l�o���
Date,Time,MP-1(��Sv/h),MP-2(��Sv/h),MP-3(��Sv/h),MP-4(��Sv/h),MP-5(��Sv/h),MP-6(��Sv/h),MP-7(��Sv/h),MP-8(��Sv/h),����,����(m/s),���J
2022/08/19,00:00,0.585,0.824,0.525,1.004,0.718,0.341,0.587,0.555,���k��,3.4,��
2022/08/19,00:10,0.585,0.825,0.524,1.004,0.719,0.338,0.588,0.555,���k��,4.1,��
2022/08/19,00:20,0.585,0.825,0.525,1.002,0.716,0.338,0.588,0.555,���k��,6.7,��
2022/08/19,00:30,0.587,0.824,0.526,1.004,0.718,0.338,0.588,0.554,��,7.6,��
2022/08/19,00:40,0.584,0.825,0.523,1.002,0.716,0.341,0.589,0.554,��,7.5,��
2022/08/19,00:50,0.585,0.824,0.525,1.003,0.718,0.339,0.588,0.554,��,8.0,��
2022/08/19,01:00,0.587,0.825,0.526,1.002,0.717,0.338,0.588,0.554,��,7.0,��
2022/08/19,01:10,0.586,0.825,0.526,1.002,0.716,0.339,0.590,0.554,��,7.1,��
2022/08/19,01:20,0.585,0.827,0.524,1.005,0.718,0.340,0.588,0.553,��,5.9,��
2022/08/19,01:30,0.586,0.824,0.525,1.006,0.717,0.340,0.589,0.554,��,5.2,��
2022/08/19,01:40,0.586,0.826,0.525,1.004,0.717,0.339,0.589,0.554,���k��,4.5,��
2022/08/19,01:50,0.588,0.825,0.524,1.005,0.718,0.338,0.589,0.555,���k��,6.4,��
2022/08/19,02:00,0.585,0.824,0.526,1.004,0.717,0.339,0.588,0.554,���k��,4.7,��
2022/08/19,02:10,0.587,0.826,0.523,1.004,0.715,0.339,0.588,0.553,���k��,3.7,��
2022/08/19,02:20,0.586,0.826,0.526,1.004,0.717,0.339,0.589,0.553,���k��,4.0,��
2022/08/19,02:30,0.587,0.824,0.524,1.004,0.717,0.338,0.588,0.553,���k��,6.1,��
2022/08/19,02:40,0.587,0.825,0.526,1.004,0.717,0.340,0.589,0.556,���k��,6.7,��
2022/08/19,02:50,0.586,0.826,0.524,1.006,0.718,0.340,0.589,0.555,���k��,6.1,��
2022/08/19,03:00,0.587,0.825,0.527,1.003,0.716,0.339,0.589,0.553,���k��,6.9,��
2022/08/19,03:10,0.585,0.825,0.525,1.004,0.716,0.340,0.589,0.553,��,8.4,��
2022/08/19,03:20,0.585,0.825,0.525,1.005,0.717,0.340,0.589,0.556,���k��,6.8,��
2022/08/19,03:30,0.587,0.825,0.525,1.008,0.718,0.339,0.590,0.554,���k��,7.1,��
2022/08/19,03:40,0.585,0.825,0.526,1.004,0.718,0.338,0.588,0.555,���k��,6.5,��
2022/08/19,03:50,0.585,0.827,0.526,1.004,0.717,0.339,0.590,0.554,���k��,4.8,��
2022/08/19,04:00,0.586,0.824,0.526,1.005,0.719,0.338,0.588,0.554,���k��,7.9,��
2022/08/19,04:10,0.585,0.826,0.525,1.003,0.717,0.340,0.591,0.555,���k��,4.0,��
2022/08/19,04:20,0.587,0.824,0.525,1.006,0.717,0.339,0.589,0.554,�k��,2.8,��
2022/08/19,04:30,0.585,0.824,0.526,1.004,0.718,0.340,0.589,0.553,�k��,3.6,��
2022/08/19,04:40,0.584,0.826,0.525,1.005,0.716,0.338,0.589,0.553,�k��,4.1,��
2022/08/19,04:50,0.585,0.827,0.524,1.004,0.717,0.338,0.590,0.554,�k��,4.9,��
2022/08/19,05:00,0.586,0.825,0.525,1.004,0.717,0.338,0.589,0.554,�k��,4.4,��
2022/08/19,05:10,0.586,0.825,0.526,1.004,0.717,0.339,0.588,0.555,�k��,4.2,��
2022/08/19,05:20,0.587,0.824,0.526,1.004,0.718,0.338,0.588,0.555,���k��,5.1,��
2022/08/19,05:30,0.587,0.824,0.525,1.006,0.716,0.338,0.589,0.553,���k��,5.1,��
2022/08/19,05:40,0.586,0.827,0.526,1.005,0.718,0.337,0.588,0.555,��,4.4,��
2022/08/19,05:50,0.586,0.825,0.525,1.003,0.718,0.337,0.589,0.555,��,4.3,��
2022/08/19,06:00,0.586,0.826,0.524,1.004,0.717,0.338,0.589,0.554,��,4.2,��
2022/08/19,06:10,0.588,0.827,0.525,1.006,0.717,0.339,0.590,0.554,��,5.6,��
2022/08/19,06:20,0.585,0.825,0.526,1.006,0.719,0.338,0.589,0.553,���k��,4.4,��
2022/08/19,06:30,0.583,0.826,0.526,1.006,0.716,0.339,0.590,0.553,���k��,4.5,��
2022/08/19,06:40,0.585,0.826,0.525,1.006,0.717,0.339,0.590,0.553,���k��,3.8,��
2022/08/19,06:50,0.586,0.826,0.525,1.006,0.717,0.339,0.588,0.555,���k��,4.2,��
2022/08/19,07:00,0.586,0.825,0.524,1.007,0.718,0.339,0.590,0.555,��,4.4,��
2022/08/19,07:10,0.586,0.824,0.526,1.008,0.716,0.338,0.591,0.554,��,3.4,��
2022/08/19,07:20,0.588,0.825,0.525,1.006,0.718,0.339,0.591,0.556,���k��,3.3,��
2022/08/19,07:30,0.586,0.825,0.526,1.008,0.716,0.338,0.591,0.555,���k��,4.8,��
2022/08/19,07:40,0.589,0.823,0.526,1.009,0.716,0.338,0.590,0.555,��,4.9,��
2022/08/19,07:50,0.588,0.827,0.526,1.009,0.718,0.338,0.591,0.555,���k��,5.2,��
2022/08/19,08:00,0.585,0.826,0.526,1.009,0.719,0.337,0.589,0.553,���k��,5.1,��
2022/08/19,08:10,0.587,0.824,0.526,1.006,0.715,0.337,0.592,0.555,��,3.3,��
2022/08/19,08:20,0.586,0.827,0.527,1.011,0.717,0.338,0.592,0.554,��,2.8,��
2022/08/19,08:30,0.587,0.826,0.525,1.008,0.717,0.340,0.592,0.551,���k��,3.7,��
2022/08/19,08:40,0.587,0.826,0.527,1.010,0.719,0.340,0.590,0.554,���k��,5.2,��
2022/08/19,08:50,0.587,0.829,0.527,1.008,0.719,0.338,0.589,0.552,��,3.8,��
2022/08/19,09:00,0.588,0.828,0.526,1.007,0.718,0.338,0.590,0.553,��,3.3,��
2022/08/19,09:10,0.588,0.827,0.527,1.008,0.718,0.338,0.590,0.554,��,4.6,��
2022/08/19,09:20,0.590,0.828,0.527,1.009,0.718,0.340,0.589,0.554,��,6.7,��
2022/08/19,09:30,0.590,0.827,0.527,1.007,0.719,0.340,0.589,0.553,��,5.3,��
2022/08/19,09:40,0.591,0.830,0.528,1.008,0.720,0.339,0.588,0.553,��,5.9,��
2022/08/19,09:50,0.590,0.829,0.528,1.010,0.718,0.340,0.590,0.554,��,5.4,��
2022/08/19,10:00,0.591,0.828,0.530,1.009,0.721,0.339,0.590,0.554,���k��,5.7,��
2022/08/19,10:10,0.592,0.832,0.529,1.010,0.722,0.340,0.589,0.553,���k��,5.5,��
2022/08/19,10:20,0.591,0.830,0.528,1.011,0.723,0.340,0.590,0.554,���k��,6.6,��
2022/08/19,10:30,0.590,0.833,0.529,1.013,0.722,0.339,0.590,0.556,���k��,6.8,��
2022/08/19,10:40,0.591,0.833,0.529,1.010,0.722,0.340,0.590,0.556,��,5.6,��
2022/08/19,10:50,0.592,0.832,0.530,1.013,0.722,0.340,0.590,0.556,���k��,4.9,��
2022/08/19,11:00,0.592,0.836,0.531,1.010,0.724,0.340,0.591,0.556,���k��,7.0,��
2022/08/19,11:10,0.593,0.836,0.531,1.014,0.724,0.339,0.591,0.555,���k��,6.4,��
2022/08/19,11:20,0.593,0.837,0.530,1.014,0.723,0.340,0.590,0.557,���k��,5.7,��
2022/08/19,11:30,0.595,0.835,0.533,1.014,0.725,0.341,0.590,0.556,���k��,4.6,��
2022/08/19,11:40,0.592,0.836,0.532,1.009,0.723,0.341,0.592,0.557,���k��,6.0,��
2022/08/19,11:50,0.594,0.838,0.533,1.011,0.726,0.341,0.591,0.556,���k��,5.9,��
2022/08/19,12:00,0.594,0.839,0.532,1.012,0.725,0.341,0.590,0.558,���k��,5.5,��
2022/08/19,12:10,0.594,0.840,0.532,1.011,0.727,0.341,0.591,0.557,���k��,5.9,��
2022/08/19,12:20,0.595,0.840,0.532,1.011,0.727,0.341,0.591,0.556,��,5.8,��
2022/08/19,12:30,0.595,0.840,0.532,1.013,0.727,0.342,0.590,0.559,���k��,6.0,��
2022/08/19,12:40,0.596,0.841,0.533,1.013,0.728,0.342,0.591,0.557,��,4.0,��
2022/08/19,12:50,0.595,0.841,0.535,1.013,0.729,0.341,0.591,0.557,��,2.8,��
2022/08/19,13:00,0.593,0.839,0.531,1.013,0.730,0.340,0.590,0.559,�쓌,6.1,��
2022/08/19,13:10,0.594,0.840,0.532,1.013,0.729,0.340,0.590,0.557,�쓌,5.6,��
2022/08/19,13:20,0.594,0.840,0.532,1.014,0.730,0.341,0.590,0.555,�쓌,5.9,��
2022/08/19,13:30,0.594,0.838,0.533,1.015,0.729,0.341,0.591,0.558,��쓌,6.4,��
2022/08/19,13:40,0.594,0.838,0.533,1.016,0.729,0.340,0.591,0.557,��쓌,6.0,��
2022/08/19,13:50,0.594,0.837,0.533,1.015,0.730,0.341,0.592,0.557,��쓌,7.1,��
2022/08/19,14:00,0.595,0.839,0.533,1.015,0.731,0.341,0.590,0.556,��쓌,7.4,��
2022/08/19,14:10,0.595,0.838,0.533,1.015,0.731,0.341,0.592,0.557,��쓌,7.8,��
2022/08/19,14:20,0.596,0.841,0.534,1.016,0.731,0.341,0.590,0.556,��쓌,7.7,��
2022/08/19,14:30,0.594,0.839,0.533,1.017,0.732,0.342,0.590,0.557,��,7.5,��
2022/08/19,14:40,0.595,0.841,0.533,1.018,0.732,0.342,0.590,0.556,��쓌,9.6,��
2022/08/19,14:50,0.594,0.841,0.533,1.017,0.733,0.343,0.590,0.556,��쓌,8.4,��
2022/08/19,15:00,0.595,0.839,0.533,1.017,0.733,0.341,0.592,0.556,��,8.2,��
2022/08/19,15:10,0.595,0.840,0.534,1.015,0.731,0.341,0.593,0.554,��쓌,7.1,��
2022/08/19,15:20,0.596,0.841,0.534,1.018,0.731,0.343,0.592,0.555,��쓌,8.6,��
2022/08/19,15:30,0.596,0.839,0.534,1.018,0.731,0.341,0.593,0.556,��쓌,8.1,��
2022/08/19,15:40,0.594,0.841,0.533,1.017,0.732,0.341,0.592,0.555,��,8.6,��
2022/08/19,15:50,0.595,0.842,0.533,1.016,0.732,0.341,0.593,0.555,��,7.3,��
2022/08/19,16:00,0.595,0.841,0.533,1.018,0.733,0.341,0.594,0.555,��,7.2,��
2022/08/19,16:10,0.596,0.844,0.532,1.015,0.735,0.340,0.591,0.555,��,6.0,��
2022/08/19,16:20,0.596,0.842,0.533,1.016,0.731,0.342,0.592,0.554,��,6.1,��
2022/08/19,16:30,0.595,0.842,0.534,1.018,0.732,0.341,0.591,0.554,��,5.7,��
2022/08/19,16:40,0.596,0.841,0.535,1.017,0.733,0.342,0.593,0.555,��,5.7,��
2022/08/19,16:50,0.596,0.842,0.533,1.019,0.732,0.341,0.593,0.553,��,7.0,��
2022/08/19,17:00,0.595,0.840,0.533,1.020,0.732,0.341,0.589,0.555,��,6.1,��
2022/08/19,17:10,0.595,0.842,0.534,1.020,0.733,0.342,0.591,0.556,��,5.8,��
2022/08/19,17:20,0.595,0.843,0.533,1.018,0.732,0.342,0.590,0.555,��,6.0,��
2022/08/19,17:30,0.595,0.842,0.534,1.017,0.731,0.341,0.590,0.555,��,6.3,��
2022/08/19,17:40,0.597,0.841,0.532,1.018,0.733,0.340,0.592,0.557,��,7.4,��
2022/08/19,17:50,0.595,0.841,0.536,1.018,0.733,0.341,0.590,0.556,��,6.9,��
2022/08/19,18:00,0.595,0.843,0.533,1.019,0.733,0.342,0.590,0.556,��,7.3,��
2022/08/19,18:10,0.597,0.843,0.534,1.020,0.733,0.342,0.590,0.556,��,7.8,��
2022/08/19,18:20,0.597,0.844,0.534,1.019,0.733,0.341,0.589,0.556,��,7.4,��
2022/08/19,18:30,0.595,0.843,0.532,1.017,0.735,0.342,0.590,0.554,��,7.2,��
2022/08/19,18:40,0.594,0.845,0.536,1.018,0.734,0.344,0.590,0.557,��,8.1,��
2022/08/19,18:50,0.595,0.845,0.532,1.021,0.736,0.343,0.591,0.554,��,6.2,��
2022/08/19,19:00,0.595,0.846,0.533,1.019,0.732,0.343,0.591,0.554,��,6.2,��
2022/08/19,19:10,0.595,0.844,0.533,1.019,0.734,0.343,0.590,0.555,��,6.6,��
2022/08/19,19:20,0.596,0.843,0.534,1.021,0.735,0.341,0.590,0.555,��,6.7,��
2022/08/19,19:30,0.596,0.843,0.536,1.024,0.736,0.343,0.590,0.554,��,6.9,��
2022/08/19,19:40,0.596,0.845,0.536,1.022,0.735,0.344,0.591,0.557,��,7.3,��
2022/08/19,19:50,0.596,0.846,0.536,1.019,0.735,0.343,0.593,0.556,��쐼,7.0,��
2022/08/19,20:00,0.596,0.844,0.536,1.022,0.734,0.341,0.591,0.554,��쐼,6.2,��
2022/08/19,20:10,0.597,0.845,0.534,1.020,0.735,0.342,0.589,0.557,��쐼,6.2,��
2022/08/19,20:20,0.595,0.846,0.537,1.021,0.734,0.342,0.591,0.555,��쐼,5.1,��
2022/08/19,20:30,0.596,0.845,0.537,1.023,0.736,0.344,0.591,0.559,��쐼,4.9,��
2022/08/19,20:40,0.599,0.846,0.535,1.024,0.736,0.343,0.591,0.556,��쐼,4.5,��
2022/08/19,20:50,0.598,0.845,0.536,1.021,0.736,0.343,0.591,0.557,��쐼,4.6,��
2022/08/19,21:00,0.597,0.845,0.536,1.022,0.734,0.342,0.593,0.555,��쐼,4.0,��
2022/08/19,21:10,0.596,0.844,0.537,1.021,0.737,0.342,0.591,0.557,��쐼,3.9,��
2022/08/19,21:20,0.598,0.845,0.536,1.021,0.735,0.342,0.590,0.557,��쐼,4.8,��
2022/08/19,21:30,0.597,0.845,0.536,1.025,0.734,0.342,0.592,0.557,��쐼,5.1,��
2022/08/19,21:40,0.597,0.845,0.536,1.021,0.734,0.342,0.592,0.557,��쐼,6.1,��
2022/08/19,21:50,0.597,0.846,0.537,1.023,0.736,0.343,0.591,0.557,�쐼,5.9,��
2022/08/19,22:00,0.597,0.845,0.537,1.021,0.738,0.344,0.591,0.557,��쐼,2.6,��
2022/08/19,22:10,0.595,0.846,0.536,1.022,0.735,0.342,0.590,0.558,��쐼,5.1,��
2022/08/19,22:20,0.596,0.845,0.537,1.021,0.735,0.344,0.591,0.556,�쐼,5.8,��
2022/08/19,22:30,0.597,0.846,0.538,1.021,0.736,0.342,0.593,0.556,�쐼,5.5,��
2022/08/19,22:40,0.598,0.847,0.538,1.022,0.737,0.342,0.591,0.555,�쐼,6.7,��
2022/08/19,22:50,0.598,0.844,0.538,1.023,0.735,0.343,0.593,0.557,��쐼,3.4,��
2022/08/19,23:00,0.599,0.846,0.537,1.021,0.735,0.342,0.593,0.556,��쐼,3.7,��
2022/08/19,23:10,0.596,0.846,0.536,1.024,0.735,0.343,0.591,0.557,��쐼,5.1,��
2022/08/19,23:20,0.597,0.845,0.537,1.022,0.736,0.342,0.593,0.556,�쐼,5.7,��
2022/08/19,23:30,0.594,0.846,0.535,1.020,0.736,0.342,0.591,0.557,�쐼,4.7,��
2022/08/19,23:40,0.597,0.846,0.536,1.021,0.734,0.343,0.592,0.558,��쐼,5.7,��
2022/08/19,23:50,0.596,0.848,0.535,1.023,0.735,0.342,0.593,0.555,��쐼,3.5,��
